GW1111 Weather Reports


time (UTC)temp
F
wind
direction
speed
knots
gust
knots
rain 1hr
in
rain 24hr
in
rain mn
in
humidity
%
barometer
mb
20260507113718 59 263 0.0 0.0 0.00 0.00 0.00 63 1015.7
20260507112717 59 297 0.0 0.0 0.00 0.00 0.00 66 1015.9
20260507111717 60 106 0.0 0.0 0.00 0.00 0.00 64 1016.0
20260507111635 57 320 0.0 0.0 0.00 0.00 0.00 66 1016.1
20260507105717 57 158 0.0 0.0 0.00 0.00 0.00 68 1016.2
20260507104719 55 47 0.0 0.0 0.00 0.00 0.00 73 1016.2
20260507103717 56 342 0.0 0.0 0.00 0.00 0.00 70 1016.2
20260507102718 55 233 0.0 0.0 0.00 0.00 0.00 72 1016.1
20260507101715 55 315 0.0 0.0 0.00 0.00 0.00 70 1016.3
20260507100716 55 269 0.0 0.0 0.00 0.00 0.00 74 1016.3
20260507095716 54 331 0.0 0.0 0.00 0.00 0.00 73 1016.3
20260507094714 54 63 0.0 0.0 0.00 0.00 0.00 76 1016.4
20260507094209 54 306 0.0 0.0 0.00 0.00 0.00 77 1016.3
20260507093158 54 265 0.0 0.0 0.00 0.00 0.00 78 1016.3
20260507091715 53 32 0.0 0.0 0.00 0.00 0.00 76 1016.3
20260507090713 53 66 0.0 0.0 0.00 0.00 0.00 76 1016.2
20260507085714 52 38 0.0 0.0 0.00 0.00 0.00 78 1016.2
20260507084715 53 211 0.0 0.0 0.00 0.00 0.00 77 1016.2
20260507083714 52 63 0.0 0.0 0.00 0.00 0.00 78 1016.2
20260507082716 52 282 0.0 0.0 0.00 0.00 0.00 78 1016.2
20260507081713 52 308 0.0 0.0 0.00 0.00 0.00 78 1016.3
20260507080713 52 310 0.0 0.0 0.00 0.00 0.00 80 1016.2
20260507075711 51 32 0.0 0.0 0.00 0.00 0.00 81 1016.1
20260507074709 51 326 0.0 0.0 0.00 0.00 0.00 80 1016.1
20260507073709 51 322 0.0 0.0 0.00 0.00 0.00 82 1016.0
20260507072709 51 5 0.0 0.0 0.00 0.00 0.00 86 1015.9
20260507071710 51 318 0.0 0.0 0.00 0.00 0.00 87 1015.9
20260507070714 50 318 0.0 0.0 0.00 0.00 0.00 88 1015.8
20260507065710 50 318 0.0 0.0 0.00 0.00 0.00 90 1015.8
20260507064710 50 318 0.0 0.0 0.00 0.00 0.00 92 1015.8
20260507063708 49 318 0.0 0.0 0.00 0.00 0.00 93 1015.7
20260507062708 49 318 0.0 0.0 0.00 0.00 0.00 93 1015.7
20260507061709 49 318 0.0 0.0 0.00 0.00 0.00 93 1015.6
20260507060710 48 318 0.0 0.0 0.00 0.00 0.00 93 1015.6
20260507060156 48 318 0.0 0.0 0.00 0.00 0.00 94 1015.6
20260507055639 48 318 0.0 0.0 0.00 0.00 0.00 93 1015.7
20260507053704 47 318 0.0 0.0 0.00 0.00 0.00 93 1015.5
20260507052705 47 318 0.0 0.0 0.00 0.00 0.00 94 1015.2
20260507051703 47 318 0.0 0.0 0.00 0.00 0.00 93 1015.2
20260507050702 47 318 0.0 0.0 0.00 0.00 0.00 93 1015.1
20260507045702 47 318 0.0 0.0 0.00 0.00 0.00 93 1015.1
20260507044702 47 318 0.0 0.0 0.00 0.00 0.00 93 1015.0
20260507043704 47 318 0.0 0.0 0.00 0.00 0.00 93 1015.0
20260507042702 47 318 0.0 0.0 0.00 0.00 0.00 93 1014.8
20260507041701 47 318 0.0 0.0 0.00 0.00 0.00 93 1014.8
20260507040659 47 318 0.0 0.0 0.00 0.00 0.00 93 1014.7
20260507035658 47 318 0.0 0.0 0.00 0.00 0.00 93 1014.7
20260507034659 47 318 0.0 0.0 0.00 0.00 0.00 92 1014.7
20260507033658 47 318 0.0 0.0 0.00 0.00 0.00 93 1014.7
20260507033140 47 318 0.0 0.0 0.00 0.00 0.00 92 1014.7
20260507031658 47 318 0.0 0.0 0.00 0.00 0.00 92 1014.7
20260507030700 47 318 0.0 0.0 0.00 0.00 0.00 92 1014.7
20260507025656 47 318 0.0 0.0 0.00 0.00 0.00 92 1014.6
20260507024652 48 318 0.0 0.0 0.00 0.00 0.00 92 1014.5
20260507023654 48 318 0.0 0.0 0.00 0.00 0.00 92 1014.6
20260507023140 48 318 0.0 0.0 0.00 0.00 0.00 92 1014.6
20260507021704 48 318 0.0 0.0 0.00 0.00 0.00 92 1014.5
20260507020655 48 318 0.0 0.0 0.00 0.00 0.00 92 1014.6
20260507020148 48 318 0.0 0.0 0.00 0.00 0.00 92 1014.5
20260507014654 48 318 0.0 0.0 0.00 0.00 0.00 92 1014.4
20260507013653 48 318 0.0 0.0 0.00 0.00 0.00 92 1014.6
20260507012655 48 318 0.0 0.0 0.00 0.00 0.00 92 1014.4
20260507012123 48 318 0.0 0.0 0.00 0.00 0.00 91 1014.3
20260507011621 48 318 0.0 0.0 0.00 0.00 0.00 91 1014.4
20260507005648 48 318 0.0 0.0 0.00 0.00 0.00 91 1014.3
20260507005136 48 318 0.0 0.0 0.00 0.00 0.00 91 1014.2
20260507003649 48 318 0.0 0.0 0.00 0.00 0.00 90 1014.2
20260507002650 48 318 0.0 0.0 0.00 0.00 0.00 90 1014.2
20260507001646 48 318 0.0 0.0 0.00 0.00 0.00 90 1014.3
20260507000653 48 318 0.0 0.0 0.00 0.00 0.00 89 1014.2
20260507000145 49 318 0.0 0.0 0.00 0.00 0.00 89 1014.2
20260506234647 49 318 0.0 0.0 0.00 0.00 0.00 88 1014.2
20260506233646 49 318 0.0 0.0 0.00 0.00 0.00 88 1014.2
20260506232649 49 318 0.0 0.0 0.00 0.00 0.00 87 1014.3
20260506231646 49 318 0.0 0.0 0.00 0.00 0.00 86 1014.3
20260506230645 49 318 0.0 0.0 0.00 0.00 0.00 85 1014.3
20260506225642 49 337 0.0 0.0 0.00 0.00 0.00 85 1014.3
20260506224642 49 298 0.0 0.0 0.00 0.00 0.00 84 1014.3
20260506223643 49 298 0.0 0.0 0.00 0.00 0.00 84 1014.4
20260506222643 49 331 0.0 0.0 0.00 0.00 0.00 84 1014.3
20260506221648 50 332 0.0 0.0 0.00 0.00 0.00 85 1014.2
20260506220641 50 324 0.0 0.0 0.00 0.00 0.00 85 1014.0
20260506215642 50 336 0.0 0.0 0.00 0.00 0.00 85 1014.0
20260506214642 50 331 0.0 0.0 0.00 0.00 0.00 86 1014.0
20260506214128 49 335 0.0 0.0 0.00 0.00 0.00 86 1014.1
20260506212640 49 335 0.0 0.0 0.00 0.00 0.00 85 1014.0
20260506211640 49 335 0.0 0.0 0.00 0.00 0.00 84 1014.0
20260506210640 50 335 0.0 0.0 0.00 0.00 0.00 83 1013.8
20260506205639 50 30 0.0 0.0 0.00 0.00 0.00 82 1013.8
20260506204634 50 43 0.0 0.0 0.00 0.00 0.00 82 1013.7
20260506203635 50 306 0.0 0.0 0.00 0.00 0.00 82 1013.9
20260506202634 50 105 0.0 0.0 0.00 0.00 0.00 82 1013.7
20260506201635 50 20 0.0 0.0 0.00 0.00 0.00 82 1013.7
20260506200635 50 19 0.0 0.0 0.00 0.00 0.00 82 1013.6
20260506195637 50 0 0.0 0.0 0.00 0.00 0.00 82 1013.5
20260506194632 50 355 0.0 0.0 0.00 0.00 0.00 83 1013.4
20260506194111 50 355 0.0 0.0 0.00 0.00 0.00 82 1013.3
20260506192633 51 355 0.0 0.0 0.00 0.00 0.00 81 1013.2
20260506191632 51 340 0.0 0.0 0.00 0.00 0.00 80 1013.0
20260506190634 51 234 0.0 0.0 0.00 0.00 0.00 79 1013.1
20260506185632 51 300 0.0 0.0 0.00 0.00 0.00 79 1013.1
20260506184633 51 325 0.0 0.0 0.00 0.00 0.00 78 1012.9
20260506183634 51 208 0.0 0.0 0.00 0.00 0.00 77 1012.9
20260506182632 51 9 0.0 0.0 0.00 0.00 0.00 78 1012.8
20260506182117 52 238 0.0 0.0 0.00 0.00 0.00 77 1012.8
20260506180636 52 267 0.0 0.0 0.00 0.00 0.00 77 1012.7
20260506175634 52 294 0.0 0.0 0.00 0.00 0.00 76 1012.5
20260506174634 52 19 0.0 0.0 0.00 0.00 0.00 75 1012.5
20260506173634 52 319 0.0 0.0 0.00 0.00 0.00 75 1012.4
20260506172636 52 261 0.0 0.0 0.00 0.00 0.00 75 1012.5
20260506172115 53 57 0.0 0.0 0.00 0.00 0.00 75 1012.3
20260506170629 52 350 0.0 0.0 0.00 0.00 0.00 75 1012.4
20260506170127 52 9 0.0 0.0 0.00 0.00 0.00 75 1012.4
20260506164628 52 308 0.0 0.0 0.00 0.00 0.00 75 1012.4
20260506163630 52 24 0.0 0.0 0.00 0.00 0.00 74 1012.2
20260506162629 53 298 0.0 0.0 0.00 0.00 0.00 73 1012.2
20260506161625 53 295 0.0 0.0 0.00 0.00 0.00 73 1012.3
20260506160624 54 71 0.0 0.0 0.00 0.00 0.00 70 1012.2
20260506155623 55 237 0.0 0.0 0.00 0.00 0.00 69 1012.1
20260506155111 55 238 0.0 0.0 0.00 0.00 0.00 70 1012.1
20260506153624 54 283 0.0 0.0 0.00 0.00 0.00 71 1012.1
20260506152623 54 321 0.0 0.0 0.00 0.00 0.00 70 1012.2
20260506151623 55 348 0.0 0.0 0.00 0.00 0.00 70 1012.3
20260506151553 54 305 0.0 0.0 0.00 0.00 0.00 70 1012.1
20260506145625 53 90 0.0 0.0 0.00 0.00 0.00 69 1012.2
20260506144623 53 257 0.0 0.0 0.00 0.00 0.00 71 1012.3
20260506143623 53 317 0.0 0.0 0.00 0.00 0.00 70 1012.3
20260506142623 54 294 0.0 0.0 0.00 0.00 0.00 69 1012.1
20260506141623 54 113 0.0 0.0 0.00 0.00 0.00 70 1012.1
20260506140622 54 327 0.0 0.0 0.00 0.00 0.00 70 1012.2
20260506135624 53 310 0.0 0.0 0.00 0.00 0.00 70 1012.1
20260506135108 54 0 0.0 0.0 0.00 0.00 0.00 69 1012.1
20260506133625 55 315 0.0 0.0 0.00 0.00 0.00 69 1012.1
20260506132624 55 355 0.0 0.0 0.00 0.00 0.00 71 1012.2
20260506131626 55 13 0.0 0.0 0.00 0.00 0.00 71 1012.1
20260506130634 55 305 0.0 0.0 0.00 0.00 0.00 73 1012.1
20260506125623 54 309 0.0 0.0 0.00 0.00 0.00 74 1012.1
20260506124621 53 22 0.0 0.0 0.00 0.00 0.00 73 1012.1
20260506123621 53 271 0.0 0.0 0.00 0.00 0.00 73 1012.0
20260506122622 53 293 0.0 0.0 0.00 0.00 0.00 73 1012.0
20260506121623 54 315 0.0 0.0 0.00 0.00 0.00 74 1012.0
20260506120624 53 311 0.0 0.0 0.00 0.00 0.00 73 1012.0
20260506115619 55 316 0.0 0.0 0.00 0.00 0.00 71 1011.8
20260506114617 54 74 0.0 0.0 0.00 0.00 0.00 72 1011.9